Regional Weather Roundup
Issued by NWS

Home | Current Version | Previous Version | Graphics & Text | Print | Product List | Glossary On
Versions: 1 2 3 4 5 6 7 8 9 10 11 12 13 14 15 16 17 18 19 20 21 22 23 24 25 26 27 28 29 30 31 32 33 34 35 36 37 38 39 40 41 42 43 44 45 46 47 48 49 50
000
ASUS43 KLMK 290902
RWRKY
KENTUCKY REGIONAL WEATHER ROUNDUP
NATIONAL WEATHER SERVICE LOUISVILLE KY
500 AM EDT FRI JUL 29 2016

NOTE "FAIR" INDICATES FEW OR NO CLOUDS BELOW 12,000 FEET
WITH NO SIGNIFICANT WEATHER AND/OR OBSTRUCTIONS TO VISIBILITY.

KYZ001>023-026-027-061>063-070>075-291000-
WESTERN AND SOUTH CENTRAL KENTUCKY

CITY           SKY/WX    TMP DP  RH WIND       PRES   REMARKS
PADUCAH        PTCLDY    74  71  91 SW3       29.90S
HENDERSON      PTCLDY    72  66  83 CALM      29.89S
OWENSBORO      CLOUDY    73  73 100 SE5       29.92R
HOPKINSVILLE   NOT AVBL
BOWLING GREEN  CLOUDY    73  71  93 SE3       29.94S
GLASGOW        NOT AVBL
$$

KYZ024-025-028>034-038-045-046-053-291000-
NORTH CENTRAL KENTUCKY

CITY           SKY/WX    TMP DP  RH WIND       PRES   REMARKS
LOUISVILLE/SDF PTCLDY    75  70  84 SW5       29.91S
LOUISVILLE/LOU PTCLDY    74  70  87 NW3       29.92S
FORT KNOX      NOT AVBL
$$

KYZ035>037-039>044-047>052-055>060-089>105-291000-
NORTHEAST KENTUCKY

CITY           SKY/WX    TMP DP  RH WIND       PRES   REMARKS
LEXINGTON      MOCLDY    72  69  90 S5        29.95R
COVINGTON      FOG       71  71 100 S3        29.92S VSB 1
FRANKFORT      MOCLDY    73  70  90 CALM      29.93R
$$

KYZ054-064>069-076>088-106>120-291000-
SOUTHEAST KENTUCKY

CITY           SKY/WX    TMP DP  RH WIND       PRES   REMARKS
JACKSON        FOG       69  68  96 CALM      29.99R VSB 1
LONDON         CLOUDY    69  67  93 CALM      29.99R
SOMERSET       MOCLDY    68  68 100 CALM      29.98S
MIDDLESBORO    CLOUDY    67  67 100 CALM      30.01S
MONTICELLO     CLOUDY   N/A N/A N/A NW9       29.99S
$$





USA.gov is the U.S. government's official web portal to all federal, state and local government web resources and services.